Regional Weather Roundup
Issued by NWS

Home | Current Version | Previous Version | Graphics & Text | Print | Product List | Glossary On
Versions: 1 2 3 4 5 6 7 8 9 10 11 12 13 14 15 16 17 18 19 20 21 22 23 24 25 26 27 28 29 30 31 32 33 34 35 36 37 38 39 40 41 42 43 44 45 46 47 48 49 50
000
ASUS45 KTFX 060710
RWRMT
MONTANA REGIONAL WEATHER ROUNDUP
NATIONAL WEATHER SERVICE GREAT FALLS MT
100 AM MDT FRI MAY 06 2016

NOTE: "FAIR" INDICATES FEW OR NO CLOUDS BELOW 12000 FEET WITH NO
SIGNIFICANT WEATHER AND/OR OBSTRUCTIONS TO VISIBILITY.

MTZ001>007-043-060800-
WEST OF THE DIVIDE

CITY           SKY/WX    TMP DP  RH WIND       PRES   REMARKS
KALISPELL      CLOUDY    57  43  59 N16       29.99F
MISSOULA       CLOUDY    59  49  69 MISG      29.98R
BUTTE          CLOUDY    54  39  57 E6        30.02R
MULLAN PASS    LGT RAIN  45  43  93 SE8         N/A
ANACONDA         N/A     54  37  54 N15G21    30.02R
DEER LODGE       N/A     55  37  50 N14       30.06R
EUREKA           N/A     52  45  76 CALM      30.05
HAMILTON         N/A     59  45  58 N13       29.94R
LIBBY            N/A     57  48  72 CALM      29.99R
PLAINS           N/A     57  51  80 CALM      29.98R
$$

MTZ008-052>055-060800-
SOUTHWEST MONTANA

CITY           SKY/WX    TMP DP  RH WIND       PRES   REMARKS
BOZEMAN        CLOUDY    61  42  49 W6        29.93R
DILLON         CLOUDY    58  39  49 NE10      29.95R
ENNIS          PTCLDY    54  34  47 N7        30.03R
THREE FORKS      N/A     62  16  17 N10       29.95S
TWIN BRIDGES     N/A     59  38  45 N10       29.95R
$$

MTZ009-010-012-014-046-048-049-054-060800-
EAST SLOPES AND CENTRAL MONTANA

CITY           SKY/WX    TMP DP  RH WIND       PRES   REMARKS
CUT BANK       CLOUDY    46  41  82 NW8       30.19R
GREAT FALLS    CLOUDY    52  40  63 N14       30.14R
MALMSTROM AFB  CLOUDY    52  43  71 N8        30.14R
HELENA         PTCLDY    56  38  50 NW10G21   30.06R
CHOTEAU          N/A     46  45  93 N12       30.17F
CONRAD           N/A     49  49 100 W7        30.19R
$$

MTZ011-013-016-021-045-047-050-051-060800-
NORTH CENTRAL MONTANA

CITY           SKY/WX    TMP DP  RH WIND       PRES   REMARKS
HAVRE          CLOUDY    56  41  57 N10       30.10R
LEWISTOWN      CLOUDY    56  44  64 W9        30.07R
N BAR RANCH    DRIZZLE   61  43  51 N13G29    30.05R
$$

MTZ017>020-022>027-061-062-060800-
NORTHEAST MONTANA

CITY           SKY/WX    TMP DP  RH WIND       PRES   REMARKS
GLASGOW        CLOUDY    63  42  46 N24G31    29.88R
JORDAN           N/A     66  42  41 N18       29.87R
SIDNEY         CLOUDY    70  39  32 NW17      29.82R
WOLF POINT     CLOUDY    68  42  38 N24G37    29.83R
SCOBEY           N/A     61  39  44 N20       29.90R
$$

MTZ028>42-056>058-060800-
SOUTHCENTRAL AND SOUTHEAST MONTANA

CITY           SKY/WX    TMP DP  RH WIND       PRES   REMARKS
BAKER          PTCLDY    57  45  64 N6        29.86R
BILLINGS       CLOUDY    65  39  38 N10       29.89R
LIVINGSTON     CLOUDY    59  41  51 N13       29.98R
MILES CITY     CLOUDY    63  47  55 NW8       29.84R
EKALAKA          N/A     66  40  38 SE3       29.88
FORSYTH          N/A     63  45  51 CALM      29.84S
LAUREL           N/A     65  36  34 N6        29.89R
ROUNDUP          N/A     66  40  38 N21       29.84S
$$

REGIONAL REPORTS...DAKOTAS

CITY           SKY/WX    TMP DP  RH WIND       PRES   REMARKS
WILLISTON      CLOUDY    63  42  46 CALM      29.81R
MINOT          PTCLDY    73  37  27 SW12      29.74R
DICKINSON      CLEAR     58  43  57 S10       29.79F
BEACH            N/A     54  41  62 NW3       29.86S
CROSBY           N/A     61  39  44 NW16      29.83R
TIOGA            N/A     64  37  36 CALM      29.86R
WATFORD CITY     N/A     54  45  71 CALM      29.81R
BISMARCK       CLEAR     58  47  66 E3        29.78S
GRAND FORKS    CLEAR     62  44  51 SW10      29.70S
FARGO          CLEAR     69  41  36 SW13      29.76S
BUFFALO SD       N/A     65  41  41 W7        29.80R
RAPID CITY     CLOUDY    53  43  68 NW6       29.87F
$$

REGIONAL REPORTS...WYOMING/IDAHO/WASHINGTON

CITY           SKY/WX    TMP DP  RH WIND       PRES   REMARKS
GILLETTE       CLOUDY    50  42  74 S5        29.92F
SHERIDAN       PTCLDY    55  41  59 SW3       29.91R
BUFFALO WY     CLOUDY    63  32  31 W9        29.97S
CODY           CLOUDY    64  30  27 SW13      29.94S
YELLOWSTONE LA   N/A     37  30  75 W3        30.14S
IDAHO FALLS    CLOUDY    57  41  55 NW3       29.87S
SALMON         CLOUDY    55  36  47 CALM      29.86R
BOISE          CLOUDY    60  48  64 W12       29.79S
SPOKANE        CLOUDY    57  49  74 N6        29.94S
$$

REGIONAL REPORTS...ALBERTA

CITY           SKY/WX    TMP DP  RH WIND       PRES   REMARKS
EDMONTON       PTCLDY    46  23  39 W6        30.12R
CALGARY        PTCLDY    46  41  81 W5        30.19R
LETHBRIDGE     CLOUDY    50  39  66 N7        30.18R
MEDICINE HAT   CLEAR     46  41  81 N6        30.15R
WATERTON GATE    N/A     45  41  87 N3          N/A
MILK RIVER       N/A     46  43  87 N9          N/A
$$

REGIONAL REPORTS...SASKATCHEWAN

CITY           SKY/WX    TMP DP  RH WIND       PRES   REMARKS
SWIFT CURRENT  MOCLDY    48  39  71 NW14      30.05R
REGINA         MOCLDY    59  41  51 N28G36    29.90R
SASKATOON      MOCLDY    46  39  76 NW9       30.04R
CYPRESS HILLS    N/A     43  37  81 N13G21      N/A
VAL MARIE        N/A     55  39  54 N23G30      N/A
ROCKGLEN         N/A     55  43  62 N17G24      N/A
ASSINIBOIA       N/A     39  32  75 NW7         N/A
$$



USA.gov is the U.S. government's official web portal to all federal, state and local government web resources and services.